星链-32102 (STARLINK-32102 )

导读

STARLINK-32102是美国SpaceX星链星座的卫星,于2024年5月8日发射升空,归属星链互联网卫星星座项目,该项目旨在为全球提供低延迟、高速率的宽带互联网覆盖服务。作为星链批量部署的卫星之一,它依托近地轨道运行,进一步扩充了星链星座的组网规模,助力全球网络覆盖能力提升。

Basic Information
目录编号:
59699
目录名称:
STARLINK-32102
国际标识:
2024-086T
轨道中心:
EARTH
卫星名称:
星链-32102
卫星全名:
星链-32102 (STARLINK-32102 )
卫星状态:
在轨 (已飞行856 天)
发射日期:
2024-05-08 UTC
国别 :
美国 (US)
星等 :
--
This satellite is enrolled in the Space Conjunction Data Service (SCDS) and the current flight risk assessment level is: High Risk
Orbit Information
数据来源 国际轨道数据
星历时间: 2026-09-11T06:17:56+0800
19小时前
查看轨道信息
半长轴: 6861.261km
偏心率: 0.0002109
轨道倾角: 42.999°
近地点辐角 253.941°
升交点赤经 93.633°
平近点角 106.121°
近地点: 481.676km
远地点: 484.572km
周期: 94.268分钟
每日圈数: 15.27555
Detailed Information
固有亮度:
5
最大亮度:
1.5
卫星平台:
Starlink v2.0 mini
覆盖范围:
全球
运营商:
太空探索技术公司
运营商所在国:
美国
制造商(研发单位):
太空探索技术公司
制造商所在国:
美国
使用方式:
暂无
Satellite Introduction
星链(Starlink)计划是由太空探索技术公司(SpaceX)提出的一个巨型低轨卫星互联网星座项目,计划在2019年至2024年间在太空搭建由约1.2万颗卫星组成的“星链”网络,其中1584颗将部署在地球上空550千米处的近地轨道,并从2020年开始工作。该卫星仍在工作。
2D Orbit Map
3D Orbit Map
Orbit Altitude Analysis Chart
Orbit Inclination Analysis Chart
Orbit Comprehensive Analysis Chart
View Comprehensive Chart
Conjunction Data List
Event ID Objects TCA Miss Dist (km) Collision Risk Probability Collision Risk Index (CRI) Action
CDM_260913-021105-969906-644521
2026-09-13T
02:11:09+0000
0.101 km
中距离
1.128097E-3 极高风险 0.96
CDM_260912-063305-969906-356321
2026-09-12T
06:33:30+0000
0.824 km
远距离
3.963469E-5 中风险 0.67
CDM_260911-202405-969906-250721
2026-09-11T
20:24:33+0000
1.019 km
极远距离
1.85004E-5 中风险 0.6
CDM_260913-153805-969906-733021
2026-09-13T
15:38:54+0000
0.986 km
远距离
1.781067E-5 中风险 0.6
CDM_260913-232205-969906-644521
2026-09-13T
23:22:13+0000
1.119 km
极远距离
1.386224E-5 中风险 0.58
CDM_260912-050005-969906-653121
2026-09-12T
05:00:31+0000
1.121 km
极远距离
1.369807E-5 中风险 0.58
CDM_260913-140405-969906-733021
2026-09-13T
14:04:45+0000
1.120 km
极远距离
1.148768E-5 中风险 0.56
CDM_260912-121105-969906-733021
2026-09-12T
12:11:13+0000
1.334 km
极远距离
6.294151E-6 低风险 0.51
CDM_260911-171405-969906-653121
2026-09-11T
17:14:22+0000
1.490 km
极远距离
5.203179E-6 低风险 0.49
CDM_260913-003705-969906-644521
2026-09-13T
00:37:00+0000
1.506 km
极远距离
5.050349E-6 低风险 0.49
Miss Distance Evolution Trend with All Objects
Collision Probability Evolution Trend with All Objects